Flag for Finland Weather past 2 weeks in Kokkola, Finland

Now
27 °F

Snow flurries. Broken clouds.


Feels Like: 17 °F
Forecast: 25 / 30 °F
Wind: 10 mph from Northeast

Location: Kruunupyy

Current Time: Feb 1, 2015 at 3:57:18 PM

Latest Report: Feb 1, 2015 at 3:20 PM


Visibility: 4 mi

Pressure: 28.91 "Hg

Humidity: 93%

Dew point: 25 °F

Location of KokkolaLocation

Historic Weather in Kokkola — Graph

°F

Kokkola temperature yesterday

Maximum temperature yesterday: 30 °F (at 2:50 PM)
Minimum temperature yesterday: 25 °F (at 8:20 AM)
Average temperature yesterday: 28 °F

Past Weeks' High & Low Weather Summary

 TemperatureHumidityPressure
High36 °F (Jan 17, 2:20 PM)100% (Jan 17, 2:20 PM)30.51 "Hg (Jan 17, 2:20 PM)
Low-6 °F (Jan 20, 12:50 AM)72% (Jan 21, 12:50 PM)28.91 "Hg (Feb 1, 11:20 AM)
Average23 °F90%29.73 "Hg
* Reported Jan 17 2:20 PM — Feb 1 2:50 PM, Kokkola, Weather by CustomWeather, © 2014

Note: Actual official high and low records may vary slightly from our data, if they occured in-between our weather recording intervals... More about our weather records

Advertising

Kokkola weather history for previous 24 hours

 ConditionsComfort  
Time TempWeatherWind HumidityBarometerVisibility
2:50 PM
Feb 1
27 °FLight snow. Broken clouds.10 mph93%28.91 "Hg4 mi
2:20 PM27 °FLight snow. Broken clouds.10 mph93%28.91 "Hg4 mi
1:50 PM27 °FLight snow. Cloudy.12 mph93%28.91 "Hg2 mi
1:20 PM27 °FLight snow. Cloudy.12 mph93%28.91 "Hg2 mi
12:50 PM27 °FLight snow. Partly sunny.12 mph93%28.91 "Hg2 mi
12:20 PM27 °FLight snow. Ice fog.10 mph93%28.91 "Hg1 mi
11:50 AM27 °FLight snow. Mostly cloudy.12 mph93%28.91 "Hg1 mi
11:20 AM27 °FLight snow. Ice fog.12 mph93%28.91 "Hg2 mi
10:50 AM27 °FLight snow. More clouds than sun.12 mph93%28.94 "Hg2 mi
10:20 AM27 °FLight snow. Low clouds.12 mph93%28.94 "Hg1 mi
9:50 AM27 °FLight snow. Mostly cloudy.13 mph93%28.94 "Hg1 mi
9:20 AM27 °FLight snow. Mostly cloudy.12 mph93%28.94 "HgN/A
8:50 AM27 °FSnow flurries. Overcast.12 mph93%28.94 "Hg3 mi
8:20 AM27 °FLight snow. Ice fog.12 mph93%28.97 "Hg1 mi
7:50 AM27 °FLight snow. Ice fog.12 mph93%28.97 "Hg1 mi
7:20 AM27 °FLight snow. Overcast.13 mph93%28.97 "Hg2 mi
6:50 AM27 °FLight snow. Ice fog.13 mph100%28.97 "Hg2 mi
6:20 AM27 °FLight snow. Mostly cloudy.12 mph100%29.00 "Hg1 mi
5:50 AM27 °FLight snow. Mostly cloudy.12 mph100%29.00 "Hg2 mi
5:20 AM27 °FSnow. Mostly cloudy.13 mph100%29.00 "Hg1 mi
4:50 AM27 °FLight snow. Low clouds.13 mph100%29.03 "Hg2 mi
4:20 AM27 °FLight snow. Mostly cloudy.13 mph100%29.03 "Hg1 mi
3:50 AM27 °FLight snow. Partly cloudy.13 mph100%29.06 "Hg2 mi
3:20 AM28 °FLight snow. Partly cloudy.13 mph93%29.06 "Hg1 mi
2:50 AM28 °FLight snow. Partly cloudy.13 mph93%29.06 "Hg2 mi
2:20 AM28 °FLight snow. Partly cloudy.12 mph93%29.09 "Hg2 mi
1:50 AM28 °FLight snow. Mostly cloudy.14 mph93%29.09 "Hg2 mi
1:20 AM28 °FLight snow. Partly cloudy.14 mph100%29.12 "Hg2 mi
12:50 AM28 °FLight snow. Passing clouds.12 mph100%29.12 "Hg2 mi
12:20 AM30 °FLight snow. Partly cloudy.14 mph93%29.15 "Hg2 mi
11:50 PM
Jan 31
30 °FLight snow. Partly cloudy.12 mph93%29.15 "Hg2 mi
11:20 PM30 °FLight snow. Partly cloudy.10 mph93%29.15 "Hg3 mi
10:50 PM30 °FLight snow. Passing clouds.10 mph93%29.18 "Hg2 mi
10:20 PM30 °FLight snow. Mostly cloudy.12 mph93%29.18 "Hg3 mi
9:50 PM30 °FSnow flurries. Mostly cloudy.12 mph86%29.18 "Hg4 mi
9:20 PM30 °FOvercast.14 mph86%29.18 "HgN/A
8:50 PM30 °FSnow flurries. Overcast.12 mph86%29.18 "HgN/A
8:20 PM30 °FLight snow. Mostly cloudy.14 mph86%29.18 "Hg6 mi
7:50 PM30 °FSnow flurries. Mostly cloudy.14 mph86%29.18 "Hg4 mi
7:20 PM30 °FMostly cloudy.15 mph86%29.21 "HgN/A
6:50 PM30 °FLight snow. Overcast.13 mph86%29.21 "HgN/A
6:20 PM30 °FMostly cloudy.12 mph86%29.21 "HgN/A
5:50 PM30 °FMostly cloudy.10 mph86%29.24 "HgN/A
5:20 PM30 °FSnow flurries. Passing clouds.12 mph86%29.24 "Hg4 mi
4:50 PM30 °FLight snow. Passing clouds.10 mph86%29.24 "Hg4 mi
4:20 PM30 °FSnow flurries. Passing clouds.10 mph86%29.24 "Hg4 mi
3:50 PM30 °FOvercast.10 mph86%29.24 "HgN/A
3:20 PM30 °FOvercast.10 mph86%29.27 "HgN/A
Weather by CustomWeather, © 2014

See weather overviewHow to use our weather pages